^^
Meteo Knjazevac Station Historical Data
Daily Summary for March 1, 2021 Units:  Metric    English   Both
Daily Weekly Monthly Yearly Custom
  High: Low: Average:
Temperature: 11.5 °C 11 °C 11.3 °C
Dew Point: 10.2 °C 9.4 °C 9.8 °C
Humidity: 94% 88% 91%
Wind Speed: 11.3km/h 0km/h 3.7km/h
Wind Gust: 20.9km/h - -
Wind- - South
Pressure: 1016.8 hPa 1015.8 hPa -
Precipitation: 0 mm    
Historical Graphs
 
 
Tabular Data for March 1, 2021
Time Temperature Dew Point Pressure Wind Wind Speed Wind Gust Humidity Rainfall Rate (Hourly) solar Conditions
00:00 11.5 °C 9.6 °C 1016.8 hPa ESE 4.8 km/h 9.7 km/h 88% 0 mm 0 W/m2
00:10 11.4 °C 9.5 °C 1016.8 hPa ESE 4.8 km/h 9.7 km/h 88% 0 mm 0 W/m2
00:20 11.4 °C 9.4 °C 1016.8 hPa ESE 3.2 km/h 11.3 km/h 88% 0 mm 0 W/m2
00:30 11.3 °C 9.6 °C 1016.5 hPa ENE 1.6 km/h 4.8 km/h 89% 0 mm 0 W/m2
00:40 11.3 °C 9.7 °C 1016.5 hPa Calm   4.8 km/h 90% 0 mm 0 W/m2
00:50 11.2 °C 9.8 °C 1016.5 hPa SE 3.2 km/h 4.8 km/h 91% 0 mm 0 W/m2
01:00 11.2 °C 9.8 °C 1016.5 hPa NE 1.6 km/h 4.8 km/h 91% 0 mm 0 W/m2
01:10 11.3 °C 9.9 °C 1016.5 hPa NNE 3.2 km/h 3.2 km/h 91% 0 mm 0 W/m2
01:20 11.3 °C 9.9 °C 1016.1 hPa NNE 3.2 km/h 4.8 km/h 91% 0 mm 0 W/m2
01:30 11.2 °C 9.8 °C 1016.1 hPa ENE 3.2 km/h 6.4 km/h 91% 0 mm 0 W/m2
01:40 11.2 °C 9.8 °C 1016.1 hPa Calm   3.2 km/h 91% 0 mm 0 W/m2
01:50 11.1 °C 9.7 °C 1016.1 hPa Calm   3.2 km/h 91% 0 mm 0 W/m2
02:00 11.1 °C 9.8 °C 1016.1 hPa Calm   3.2 km/h 92% 0 mm 0 W/m2
02:10 11 °C 9.9 °C 1016.1 hPa North 1.6 km/h 4.8 km/h 93% 0 mm 0 W/m2
02:20 11 °C 9.9 °C 1016.1 hPa NNE 3.2 km/h 4.8 km/h 93% 0 mm 0 W/m2
02:30 11 °C 9.9 °C 1016.1 hPa NE 3.2 km/h 6.4 km/h 93% 0 mm 0 W/m2
02:40 11 °C 9.9 °C 1016.1 hPa Calm   6.4 km/h 93% 0 mm 0 W/m2
02:50 11.1 °C 10 °C 1016.1 hPa Calm   4.8 km/h 93% 0 mm 0 W/m2
03:00 11.1 °C 10.2 °C 1016.1 hPa Calm   3.2 km/h 94% 0 mm 0 W/m2
03:10 11.1 °C 10.2 °C 1016.1 hPa SE 3.2 km/h 8 km/h 94% 0 mm 0 W/m2
03:20 11.1 °C 10.2 °C 1016.1 hPa Calm   11.3 km/h 94% 0 mm 0 W/m2
03:30 11.1 °C 10.2 °C 1016.1 hPa WSW 3.2 km/h 6.4 km/h 94% 0 mm 0 W/m2
03:40 11.2 °C 10.1 °C 1016.1 hPa SW 1.6 km/h 4.8 km/h 93% 0 mm 0 W/m2
03:50 11.2 °C 10.1 °C 1015.8 hPa West 1.6 km/h 8 km/h 93% 0 mm 0 W/m2
04:00 11.3 °C 9.9 °C 1015.8 hPa West 3.2 km/h 11.3 km/h 91% 0 mm 0 W/m2
04:10 11.3 °C 9.9 °C 1015.8 hPa West 3.2 km/h 9.7 km/h 91% 0 mm 0 W/m2
04:20 11.4 °C 9.8 °C 1016.1 hPa WSW 3.2 km/h 12.9 km/h 90% 0 mm 0 W/m2
04:30 11.5 °C 9.9 °C 1015.8 hPa West 8 km/h 12.9 km/h 90% 0 mm 0 W/m2
04:40 11.5 °C 9.7 °C 1015.8 hPa West 4.8 km/h 12.9 km/h 89% 0 mm 0 W/m2
04:50 11.4 °C 9.7 °C 1015.8 hPa West 3.2 km/h 9.7 km/h 89% 0 mm 0 W/m2
05:00 11.5 °C 9.7 °C 1015.8 hPa WNW 3.2 km/h 11.3 km/h 89% 0 mm 1 W/m2
05:10 11.5 °C 9.7 °C 1016.1 hPa West 3.2 km/h 8 km/h 89% 0 mm 2 W/m2
05:20 11.4 °C 9.5 °C 1015.8 hPa WSW 4.8 km/h 8 km/h 88% 0 mm 4 W/m2
05:30 11.4 °C 9.5 °C 1016.1 hPa West 8 km/h 11.3 km/h 88% 0 mm 6 W/m2
05:40 11.3 °C 9.4 °C 1016.1 hPa West 11.3 km/h 19.3 km/h 88% 0 mm 11 W/m2
05:50 11.3 °C 9.6 °C 1016.1 hPa West 11.3 km/h 20.9 km/h 89% 0 mm 15 W/m2
06:00 11.3 °C 9.4 °C 1016.1 hPa West 8 km/h 20.9 km/h 88% 0 mm 15 W/m2
06:10 11.3 °C 9.4 °C 1016.1 hPa WSW 8 km/h 16.1 km/h 88% 0 mm 20 W/m2
06:20 11.3 °C 9.6 °C 1015.8 hPa West 9.7 km/h 20.9 km/h 89% 0 mm 28 W/m2
06:30 11.3 °C 9.6 °C 1015.8 hPa WSW 8 km/h 19.3 km/h 89% 0 mm 42 W/m2
Knjazevac, Serbia
Compliments of Weather Underground - 2 mb